Linden, NJ

3:17 PM EST on January 19, 2018 (GMT -0500)
Linden

Weather History for KLDJ - November, 2012

Change the Weather History Date:

Wednesday, November 14, 2012

  Actual Average (KEWR) Record (KEWR)
Temperature  
Mean Temperature 42 °F -  
Max Temperature 50 °F 54 °F 73 °F (1993)
Min Temperature 35 °F 38 °F 21 °F (1986)
Degree Days  
Heating Degree Days 22    
Moisture  
Dew Point 27 °F    
Average Humidity 54    
Maximum Humidity 76    
Minimum Humidity 42    
Precipitation  
Precipitation 0.00 in - - ()
Sea Level Pressure  
Sea Level Pressure 30.49 in    
Wind  
Wind Speed 6 mph (North)    
Max Wind Speed 13 mph    
Max Gust Speed 20 mph    
Visibility 10 miles    
Events      
Averages and records for this station are not official NWS values.
T = Trace of Precipitation, MM = Missing Value Source: NWS Daily Summary

Daily Weather History Graph

Daily Weather History Graph

Search for Another Location

Airport or City:

Trip Planner

Search our weather history database for the weather conditions in past years. The results will help you decide how hot, cold, wet, or windy it might be!

Date:

Astronomy

Nov. 14, 2012 Rise Set
Actual Time 6:42 AM EST 4:39 PM EST
Civil Twilight 6:13 AM EST 5:08 PM EST
Nautical Twilight 5:40 AM EST 5:41 PM EST
Astronomical Twilight 5:08 AM EST 6:14 PM EST
Moon 7:29 AM EST (11/14) 5:25 PM EST (11/14)
Length of Visible Light 10h 55m
Length of Day
9h 56m
New Moon, 1% of the Moon is Illuminated
Nov 14
New Moon
Nov 20
First Quarter
Nov 28
Full
Dec 6
Last Quarter
Dec 13
New

Hourly Weather History & Observations

Time (EST) Temp. Windchill Dew Point Humidity Pressure Visibility Wind Dir Wind Speed Gust Speed Precip Events Conditions
12:15 AM 41.4 °F 37.6 °F 28.8 °F 61% 30.47 in 10.0 mi NNW 5.8 mph - N/A   Overcast
12:35 AM 41.5 °F 37.1 °F 28.8 °F 60% 30.47 in 10.0 mi North 6.9 mph - N/A   Overcast
12:55 AM 41.9 °F 37.5 °F 28.9 °F 60% 30.47 in 10.0 mi North 6.9 mph - N/A   Overcast
1:15 AM 41.9 °F 38.2 °F 28.6 °F 59% 30.47 in 10.0 mi North 5.8 mph - N/A   Overcast
1:35 AM 41.0 °F 38.0 °F 28.6 °F 61% 30.47 in 10.0 mi North 4.6 mph - N/A   Mostly Cloudy
1:55 AM 40.3 °F 37.1 °F 28.8 °F 63% 30.48 in 10.0 mi North 4.6 mph - N/A   Scattered Clouds
2:15 AM 39.7 °F 36.5 °F 28.8 °F 65% 30.49 in 10.0 mi NNW 4.6 mph - N/A   Clear
2:35 AM 39.4 °F 37.2 °F 28.6 °F 65% 30.49 in 10.0 mi North 3.5 mph - N/A   Scattered Clouds
2:55 AM 39.0 °F 36.8 °F 28.4 °F 66% 30.49 in 10.0 mi North 3.5 mph - N/A   Scattered Clouds
3:15 AM 38.5 °F - 28.4 °F 67% 30.49 in 10.0 mi Calm Calm - N/A   Clear
3:35 AM 37.2 °F 34.7 °F 29.1 °F 73% 30.49 in 10.0 mi North 3.5 mph - N/A   Clear
3:55 AM 37.0 °F 34.5 °F 29.1 °F 73% 30.49 in 10.0 mi NW 3.5 mph - N/A   Clear
4:15 AM 36.5 °F 33.9 °F 29.1 °F 75% 30.50 in 10.0 mi NW 3.5 mph - N/A   Clear
4:35 AM 36.0 °F 33.3 °F 28.9 °F 76% 30.50 in 10.0 mi NW 3.5 mph - N/A   Clear
4:55 AM 35.8 °F 33.0 °F 28.8 °F 76% 30.50 in 10.0 mi NW 3.5 mph - N/A   Clear
5:15 AM 35.8 °F 33.0 °F 28.4 °F 75% 30.50 in 10.0 mi NW 3.5 mph - N/A   Clear
5:35 AM 35.8 °F 33.0 °F 28.4 °F 75% 30.51 in 10.0 mi NNW 3.5 mph - N/A   Clear
5:55 AM 35.6 °F 32.8 °F 28.8 °F 76% 30.51 in 10.0 mi NW 3.5 mph - N/A   Clear
6:15 AM 35.8 °F - 28.8 °F 76% 30.51 in 10.0 mi Calm Calm - N/A   Clear
6:35 AM 36.7 °F 34.1 °F 28.4 °F 72% 30.52 in 10.0 mi NNW 3.5 mph - N/A   Clear
6:55 AM 37.6 °F 33.1 °F 27.0 °F 66% 30.52 in 10.0 mi North 5.8 mph - N/A   Clear
7:15 AM 38.7 °F 34.3 °F 26.4 °F 61% 30.52 in 10.0 mi North 5.8 mph - N/A   Clear
7:35 AM 39.9 °F 35.1 °F 26.1 °F 58% 30.52 in 10.0 mi North 6.9 mph - N/A   Clear
7:55 AM 40.5 °F 36.5 °F 25.9 °F 56% 30.53 in 10.0 mi North 5.8 mph - N/A   Clear
8:15 AM 41.2 °F 35.0 °F 25.7 °F 54% 30.53 in 10.0 mi North 10.4 mph - N/A   Clear
8:35 AM 41.9 °F 36.9 °F 25.9 °F 53% 30.53 in 10.0 mi NNE 8.1 mph - N/A   Clear
8:55 AM 42.8 °F 38.0 °F 25.5 °F 51% 30.53 in 10.0 mi NNE 8.1 mph 19.6 mph N/A   Clear
9:15 AM 43.2 °F 37.4 °F 25.5 °F 50% 30.53 in 10.0 mi North 10.4 mph 19.6 mph N/A   Clear
9:35 AM 44.6 °F 39.7 °F 25.5 °F 47% 30.53 in 10.0 mi NNE 9.2 mph - N/A   Clear
9:55 AM 45.1 °F 40.8 °F 25.3 °F 46% 30.53 in 10.0 mi NE 8.1 mph - N/A   Clear
10:15 AM 45.9 °F 41.2 °F 25.5 °F 45% 30.53 in 10.0 mi NNE 9.2 mph - N/A   Clear
10:35 AM 46.4 °F 41.9 °F 26.4 °F 46% 30.53 in 10.0 mi North 9.2 mph - N/A   Clear
10:55 AM 46.8 °F - 26.6 °F 45% 30.51 in 10.0 mi NE 12.7 mph 16.1 mph N/A   Clear
11:15 AM 47.3 °F - 27.5 °F 46% 30.51 in 10.0 mi North 9.2 mph - N/A   Clear
11:35 AM 48.2 °F - 28.4 °F 46% 30.50 in 10.0 mi North 6.9 mph - N/A   Scattered Clouds
11:55 AM 48.2 °F - 27.9 °F 45% 30.50 in 10.0 mi North 8.1 mph - N/A   Mostly Cloudy
12:15 PM 48.2 °F - 28.4 °F 46% 30.49 in 10.0 mi NE 6.9 mph - N/A   Mostly Cloudy
12:35 PM 49.6 °F - 28.6 °F 44% 30.48 in 10.0 mi NE 8.1 mph - N/A   Mostly Cloudy
12:55 PM 49.3 °F - 28.9 °F 45% 30.48 in 10.0 mi NE 5.8 mph - N/A   Scattered Clouds
1:15 PM 50.5 °F - 29.1 °F 44% 30.47 in 10.0 mi ENE 9.2 mph - N/A   Scattered Clouds
1:35 PM 50.0 °F - 29.3 °F 45% 30.46 in 10.0 mi North 8.1 mph - N/A   Scattered Clouds
1:55 PM 50.4 °F - 29.8 °F 45% 30.47 in 10.0 mi North 5.8 mph - N/A   Scattered Clouds
2:15 PM 50.9 °F - 29.3 °F 43% 30.47 in 10.0 mi ENE 6.9 mph - N/A   Scattered Clouds
2:35 PM 50.2 °F - 29.5 °F 45% 30.47 in 10.0 mi Calm Calm - N/A   Scattered Clouds
2:55 PM 50.0 °F - 30.0 °F 46% 30.47 in 10.0 mi NNW 4.6 mph - N/A   Scattered Clouds
3:15 PM 50.4 °F - 28.4 °F 43% 30.47 in 10.0 mi Calm Calm - N/A   Clear
3:35 PM 50.0 °F - 28.2 °F 43% 30.47 in 10.0 mi NNE 4.6 mph - N/A   Clear
3:55 PM 49.5 °F - 28.4 °F 44% 30.47 in 10.0 mi North 6.9 mph - N/A   Clear
4:15 PM 48.6 °F - 28.2 °F 45% 30.46 in 10.0 mi North 8.1 mph - N/A   Clear
4:35 PM 47.7 °F - 26.2 °F 43% 30.47 in 10.0 mi North 6.9 mph - N/A   Clear
4:55 PM 47.5 °F - 25.5 °F 42% 30.47 in 10.0 mi North 4.6 mph - N/A   Clear
5:15 PM 46.8 °F - 25.2 °F 43% 30.47 in 10.0 mi North 3.5 mph - N/A   Clear
5:35 PM 46.2 °F 44.1 °F 25.9 °F 45% 30.47 in 10.0 mi North 4.6 mph - N/A   Clear
5:55 PM 46.0 °F 44.8 °F 26.2 °F 46% 30.47 in 10.0 mi North 3.5 mph - N/A   Clear
6:15 PM 45.9 °F 43.6 °F 26.2 °F 46% 30.47 in 10.0 mi North 4.6 mph - N/A   Clear
6:35 PM 45.5 °F 42.5 °F 26.4 °F 47% 30.48 in 10.0 mi North 5.8 mph - N/A   Clear
6:55 PM 45.0 °F 42.6 °F 26.1 °F 48% 30.48 in 10.0 mi North 4.6 mph - N/A   Clear
7:15 PM 44.6 °F 42.2 °F 25.3 °F 47% 30.49 in 10.0 mi NNE 4.6 mph - N/A   Clear
7:35 PM 44.2 °F 41.0 °F 24.6 °F 46% 30.48 in 10.0 mi NNE 5.8 mph - N/A   Clear
7:55 PM 44.2 °F 40.3 °F 23.4 °F 44% 30.49 in 10.0 mi NNE 6.9 mph - N/A   Clear
8:15 PM 43.7 °F 39.7 °F 23.4 °F 45% 30.49 in 10.0 mi NE 6.9 mph - N/A   Clear
8:35 PM 43.7 °F 39.1 °F 23.7 °F 45% 30.48 in 10.0 mi NE 8.1 mph - N/A   Clear
8:55 PM 43.3 °F 39.2 °F 23.7 °F 46% 30.48 in 10.0 mi NE 6.9 mph 16.1 mph N/A   Clear
9:35 PM 42.8 °F 37.0 °F 24.4 °F 48% 30.46 in 10.0 mi NE 10.4 mph 16.1 mph N/A   Clear
9:55 PM 42.3 °F 38.6 °F 24.6 °F 50% 30.45 in 10.0 mi North 5.8 mph - N/A   Clear
10:15 PM 41.9 °F 36.9 °F 24.6 °F 50% 30.45 in 10.0 mi NNE 8.1 mph - N/A   Clear
10:35 PM 41.4 °F 38.4 °F 24.8 °F 52% 30.46 in 10.0 mi North 4.6 mph - N/A   Clear
10:55 PM 41.0 °F 39.0 °F 24.8 °F 53% 30.47 in 10.0 mi North 3.5 mph - N/A   Clear
11:15 PM 39.9 °F - 25.3 °F 56% 30.47 in 10.0 mi Calm Calm - N/A   Clear
11:35 PM 40.1 °F 38.0 °F 25.2 °F 55% 30.48 in 10.0 mi North 3.5 mph - N/A   Clear
11:55 PM 39.4 °F 36.1 °F 25.3 °F 57% 30.47 in 10.0 mi North 4.6 mph - N/A   Clear